Location: Bluff Heights
(33.7692°N, 118.1592°W)
Time: 12:52:16
(UTC+00:00)

Tiros 1 - Visible Passes

Search period start: 02 August 2021 00:00
Search period end: 12 August 2021 00:00
Orbit: 630 x 664 km, 48.4° (Epoch: 02 August)

Date Brightness Start Highest point End Pass type
(mag) Time Alt. Az. Time Alt. Az. Time Alt. Az.
02 Aug 9.8 03:56:54 10° NW 03:59:24 14° N 04:01:54 10° NNE visible
02 Aug 9.4 05:40:03 10° NNW 05:43:09 17° NNE 05:44:27 15° NE visible
02 Aug 10.0 07:21:37 10° NW 07:22:05 13° NW 07:22:05 13° NW visible
03 Aug 9.8 04:23:44 10° NNW 04:26:08 14° N 04:28:30 10° NE visible
03 Aug 9.1 06:05:42 10° NNW 06:08:48 24° N 06:08:48 24° N visible
04 Aug 9.5 04:49:46 10° NNW 04:52:49 17° NNE 04:55:34 11° NE visible
04 Aug 9.4 06:31:21 10° NW 06:33:12 22° NNW 06:33:12 22° NNW visible
05 Aug 9.7 03:33:24 10° NNW 03:35:47 14° N 03:38:09 10° NNE visible
05 Aug 8.8 05:15:27 10° NNW 05:19:20 24° NNE 05:19:59 24° NE visible
05 Aug 10.0 06:57:12 10° NW 06:57:37 12° NW 06:57:37 12° NW visible
06 Aug 9.5 03:59:31 10° NNW 04:02:28 16° NNE 04:05:24 10° NE visible
06 Aug 8.5 05:41:06 10° NW 05:44:27 36° N 05:44:27 36° N visible
07 Aug 8.9 04:25:12 10° NNW 04:29:01 23° NNE 04:31:20 16° ENE visible
07 Aug 9.1 06:06:55 10° NW 06:08:58 25° NW 06:08:58 25° NW visible
08 Aug 9.5 03:09:14 10° NNW 03:12:07 16° NNE 03:15:01 10° NE visible
08 Aug 7.9 04:50:51 10° NW 04:55:20 40° NNE 04:55:53 39° NE visible
08 Aug 10.0 06:33:11 10° WNW 06:33:31 12° WNW 06:33:31 12° WNW visible
09 Aug 9.0 03:34:57 10° NNW 03:38:42 22° NNE 03:42:23 10° ENE visible
09 Aug 7.6 05:16:38 10° NW 05:20:29 58° NW 05:20:29 58° NW visible
10 Aug 8.1 04:00:36 10° NW 04:05:02 38° NNE 04:07:30 22° E visible
10 Aug 9.0 05:42:51 10° WNW 05:45:09 25° W 05:45:09 25° W visible
11 Aug 7.1 04:26:22 10° NW 04:31:08 80° NE 04:32:13 53° ESE visible
